This is the latest recevied weather packets stored in our database for station/object KN4MGS. If no packets are shown the sender has not sent any weather packets the latest 10 day(s).
| Time | Temp. | Humidity | Pressure | Rain* | Wind** | Luminosity | Snow |
|---|---|---|---|---|---|---|---|
| 1777921192 | 26.11° C | 34% | 1018.5 hPa | 0 mm | - | 710 W/m² | - |
| 1777920889 | 25.56° C | 36% | 1018.6 hPa | 0 mm | - | 708 W/m² | - |
| 1777920585 | 25.56° C | 36% | 1018.9 hPa | 0 mm | - | 734 W/m² | - |
| 1777920281 | 26.67° C | 35% | 1018.7 hPa | 0 mm | - | 711 W/m² | - |
| 1777919977 | 25.56° C | 36% | 1018.8 hPa | 0 mm | - | 664 W/m² | - |
| 1777919674 | 26.11° C | 35% | 1018.5 hPa | 0 mm | - | 687 W/m² | - |
| 1777919373 | 25.56° C | 37% | 1019 hPa | 0 mm | - | 707 W/m² | - |
| 1777919069 | 25.56° C | 36% | 1019 hPa | 0 mm | - | 766 W/m² | - |
| 1777918767 | 26.11° C | 37% | 1019 hPa | 0 mm | - | 751 W/m² | - |
| 1777918464 | 25.56° C | 39% | 1019.1 hPa | 0 mm | - | 740 W/m² | - |
| 1777918162 | 25.56° C | 40% | 1019.2 hPa | 0 mm | - | 745 W/m² | - |
| 1777917861 | 26.11° C | 36% | 1019.1 hPa | 0 mm | - | 768 W/m² | - |
| 1777917558 | 25° C | 38% | 1019 hPa | 0 mm | - | 779 W/m² | - |
| 1777917255 | 25.56° C | 36% | 1019.3 hPa | 0 mm | - | 702 W/m² | - |
| 1777916953 | 25° C | 38% | 1019.3 hPa | 0 mm | - | 602 W/m² | - |
| 1777916650 | 25.56° C | 37% | 1019.5 hPa | 0 mm | - | 720 W/m² | - |
| 1777916348 | 25° C | 38% | 1019.5 hPa | 0 mm | - | 691 W/m² | - |
| 1777916044 | 25° C | 35% | 1019.4 hPa | 0 mm | - | 712 W/m² | - |
| 1777915741 | 25.56° C | 37% | 1019.6 hPa | 0 mm | - | 721 W/m² | - |
| 1777915437 | 25° C | 38% | 1019.9 hPa | 0 mm | - | 768 W/m² | - |
| 1777915134 | 23.89° C | 37% | 1019.7 hPa | 0 mm | - | 732 W/m² | - |
| 1777914831 | 25° C | 40% | 1019.9 hPa | 0 mm | - | 635 W/m² | - |
| 1777914528 | 24.44° C | 39% | 1019.6 hPa | 0 mm | - | 721 W/m² | - |
| 1777914224 | 25.56° C | 40% | 1019.6 hPa | 0 mm | - | 772 W/m² | - |
| 1777913921 | 24.44° C | 41% | 1020 hPa | 0 mm | - | 748 W/m² | - |
* Rain latest hour (hover to see other rain measurements)
** Current wind speed in m/s (hover to see current wind gust speed)